Flag for Brazil Weather past 2 weeks in Campinas, São Paulo, Brazil

Now
72 °F

Haze.


Feels Like: 72 °F
Forecast: 67 / 83 °F
Wind: 6 mph from Southeast

Location: Campinas Aeroporto

Current Time: Mar 28, 2015 at 8:28:56 AM

Latest Report: Mar 28, 2015 at 8:00 AM


Visibility: 2 mi

Pressure: 30.15 "Hg

Humidity: 78%

Dew point: 64 °F

Location of CampinasLocation

Historic Weather in Campinas — Graph

°F

Campinas temperature yesterday

Maximum temperature yesterday: 88 °F (at 4:00 PM)
Minimum temperature yesterday: 68 °F (at 5:00 AM)
Average temperature yesterday: 77 °F

Past Weeks' High & Low Weather Summary

 TemperatureHumidityPressure
High88 °F (Mar 27, 4:00 PM)100% (Mar 14, 2:00 AM)30.18 "Hg (Mar 14, 2:00 AM)
Low39 °F (Mar 16, 6:00 PM)35% (Mar 27, 4:00 PM)29.89 "Hg (Mar 21, 4:00 PM)
Average72 °F80%30.04 "Hg
* Reported Mar 13 7:00 AM — Mar 28 7:00 AM, Campinas, Weather by CustomWeather, © 2015

Note: Actual official high and low records may vary slightly from our data, if they occured in-between our weather recording intervals... More about our weather records

Advertising

Campinas weather history for previous 24 hours

 ConditionsComfort  
Time TempWeatherWind HumidityBarometerVisibility
7:00 AM
Sat, Mar 28
70 °FSleet. Fog.3 mph88%30.12 "Hg3 mi
6:00 AM70 °FFog.3 mph83%30.12 "Hg3 mi
5:00 AM70 °FFog.5 mph88%30.09 "Hg3 mi
4:00 AM70 °FClear.5 mph88%30.09 "Hg4 mi
3:00 AM72 °FClear.5 mph88%30.09 "Hg5 mi
2:00 AM70 °FClear.6 mph88%30.09 "Hg6 mi
1:00 AM72 °FClear.5 mph83%30.09 "Hg4 mi
12:00 AM73 °FClear.1 mph78%30.12 "Hg5 mi
11:00 PM
Fri, Mar 27
73 °FClear.6 mph78%30.12 "Hg5 mi
10:00 PM75 °FPassing clouds.14 mph74%30.12 "Hg5 mi
9:00 PM75 °FPassing clouds.9 mph74%30.12 "HgN/A
8:00 PM81 °FPassing clouds.6 mph48%30.09 "HgN/A
7:00 PM82 °FPassing clouds.6 mph45%30.07 "HgN/A
6:00 PM84 °FPassing clouds.7 mph43%30.07 "HgN/A
5:00 PM86 °FPassing clouds.6 mph38%30.04 "HgN/A
4:00 PM88 °FPassing clouds.6 mph35%30.04 "HgN/A
3:00 PM86 °FSunny.8 mph38%30.04 "Hg10 mi
2:00 PM86 °FPassing clouds.6 mph43%30.07 "HgN/A
1:00 PM86 °FPassing clouds.7 mph40%30.07 "HgN/A
12:00 PM84 °FSunny.5 mph43%30.09 "Hg10 mi
11:00 AM81 °FSunny.7 mph51%30.09 "Hg10 mi
10:00 AM77 °FSunny.13 mph54%30.09 "Hg10 mi
9:00 AM72 °FSunny.12 mph73%30.09 "Hg10 mi
8:00 AM70 °FClear.10 mph83%30.09 "Hg5 mi
Weather by CustomWeather, © 2015

See weather overviewHow to use our weather pages